Regional Weather Roundup
Issued by NWS

Home | Current Version | Previous Version | Text Only | Print | Product List | Glossary Off
Versions: 1 2 3 4 5 6 7 8 9 10 11 12 13 14 15 16 17 18 19 20 21 22 23 24 25 26 27 28 29 30 31 32 33 34 35 36 37 38 39 40 41 42 43 44 45 46 47 48 49 50

000
ASUS43 KOAX 190502
RWRNE

WEATHER ROUNDUP FOR NEBRASKA
NATIONAL WEATHER SERVICE OMAHA NE
1200 AM CDT THU OCT 19 2017

NOTES: SATELLITE DATA IS BEING USED TO AUGMENT CLOUD COVER ABOVE
       12000 FEET.
       "FAIR" INDICATES FEW OR NO CLOUDS BELOW 12,000 FEET WITH NO
       SIGNIFICANT WEATHER AND/OR OBSTRUCTIONS TO VISIBILITY.


NEZ001>004-019>022-054>056-190600-
NEBRASKA PANHANDLE

CITY           SKY/WX    TMP DP  RH WIND       PRES   REMARKS
SCOTTSBLUFF    CLOUDY    47  31  53 E10       30.09R
ALLIANCE       CLOUDY    40  32  73 SE7       30.08S
CHADRON        CLOUDY    60  28  29 S32G39    29.99F
GORDON         FAIR      49  32  51 S3        30.05F
KIMBALL        CLOUDY    41  28  59 SE5       30.13S
SIDNEY         CLOUDY    41  30  65 S8        30.12S
$$

NEZ057>060-069>072-079>082-190600-
SOUTHWEST NEBRASKA

CITY           SKY/WX    TMP DP  RH WIND       PRES   REMARKS
NORTH PLATTE   CLOUDY    41  35  79 E3        30.10S
IMPERIAL       CLOUDY    46  33  60 SE5       30.10S
LEXINGTON      CLEAR     41  37  84 CALM      30.10F
MCCOOK         CLEAR     47  35  63 E5        30.09F
OGALLALA       CLOUDY    46  34  63 CALM      30.10S
$$

NEZ005>010-023>029-035>040-094-190600-
NORTH CENTRAL NEBRASKA

CITY           SKY/WX    TMP DP  RH WIND       PRES   REMARKS
VALENTINE      CLEAR     47  34  60 S7        30.06S
AINSWORTH      CLOUDY    39  35  84 S8        30.07F WCI  33
BROKEN BOW     CLOUDY    37  33  85 CALM      30.10R
O`NEILL        CLOUDY    45  38  77 S7        30.07F
ORD            CLEAR     39  34  82 SW3       30.08S
$$

NEZ041-046>049-061>064-073>077-083>087-190600-
SOUTH CENTRAL NEBRASKA

CITY           SKY/WX    TMP DP  RH WIND       PRES   REMARKS
GRAND ISLAND   CLEAR     47  40  76 NW3       30.09R
AURORA         CLEAR     46  38  74 N5        30.08S
HASTINGS       CLEAR     48  38  68 CALM      30.09R
HEBRON         CLEAR     53  43  67 CALM      30.05S
HOLDREGE       CLEAR     43  37  78 N5        30.09S
KEARNEY        CLEAR     48  37  65 N5        30.10R
YORK           CLEAR     48  41  76 N3        30.07R
$$

NEZ011>018-030>034-042>045-190600-
NORTHEAST NEBRASKA

CITY           SKY/WX    TMP DP  RH WIND       PRES   REMARKS
NORFOLK        CLEAR     44  38  79 NW3       30.06S
ALBION         CLOUDY    42  37  80 NW5       30.08S
BLAIR          CLEAR     58  46  64 NE6       30.05S
COLUMBUS       CLEAR     52  37  56 CALM      30.07S
FREMONT        CLEAR     49  43  79 CALM      30.05S
TEKAMAH        CLEAR     47  42  83 N6        30.04S
WAYNE          CLEAR     40  38  91 CALM      30.06S
$$

NEZ050>053-065>068-078-088>093-190600-
SOUTHEAST NEBRASKA

CITY           SKY/WX    TMP DP  RH WIND       PRES   REMARKS
LINCOLN        CLEAR     47  43  86 N5        30.06S
OMAHA EPPLEY   CLEAR     49  45  86 N7        30.04S
BEATRICE       CLEAR     50  47  92 NE3       30.04S
FALLS CITY     CLEAR     52  48  86 CALM      30.03S
NEBRASKA CITY  CLEAR     57  51  80 CALM      30.04S
PLATTSMOUTH    CLEAR     58  50  75 E3        30.04S
$$

NEZ044-045-051>053-067-190600-
OMAHA AREA

CITY           SKY/WX    TMP DP  RH WIND       PRES   REMARKS
OMAHA EPPLEY   CLEAR     49  45  86 N7        30.04S
BLAIR          CLEAR     58  46  64 NE6       30.05S
FREMONT        CLEAR     49  43  79 CALM      30.05S
MILLARD        CLEAR     54  49  83 CALM      30.04S
OFFUTT AFB     CLEAR     53  46  78 CALM      30.03S
PLATTSMOUTH    CLEAR     58  50  75 E3        30.04S
WAHOO          FAIR      52  44  75 CALM      30.05S
$$




USA.gov is the U.S. government's official web portal to all federal, state and local government web resources and services.